This is the latest recevied weather packets stored in our database for station/object KI5NXU. If no packets are shown the sender has not sent any weather packets the latest 10 day(s).
| Time | Temp. | Humidity | Pressure | Rain* | Wind** | Luminosity | Snow |
|---|---|---|---|---|---|---|---|
| 1777677086 | 17.22° C | 67% | 1015.1 hPa | 0 mm | - | 127 W/m² | - |
| 1777676784 | 17.22° C | 66% | 1015 hPa | 0 mm | - | 131 W/m² | - |
| 1777676482 | 17.22° C | 67% | 1014.8 hPa | 0 mm | - | 132 W/m² | - |
| 1777676179 | 17.22° C | 66% | 1015.1 hPa | 0 mm | - | 124 W/m² | - |
| 1777675875 | 17.22° C | 65% | 1014.9 hPa | 0 mm | - | 127 W/m² | - |
| 1777675573 | 17.22° C | 66% | 1014.8 hPa | 0 mm | - | 136 W/m² | - |
| 1777675269 | 17.22° C | 65% | 1014.8 hPa | 0 mm | - | 138 W/m² | - |
| 1777674966 | 17.22° C | 65% | 1014.9 hPa | 0 mm | - | 133 W/m² | - |
| 1777674663 | 17.22° C | 65% | 1014.8 hPa | 0 mm | - | 136 W/m² | - |
| 1777674381 | 17.22° C | 65% | 1014.9 hPa | 0 mm | - | 138 W/m² | - |
| 1777674056 | 17.22° C | 64% | 1014.5 hPa | 0 mm | - | 131 W/m² | - |
| 1777673752 | 17.22° C | 64% | 1014.9 hPa | 0 mm | - | 146 W/m² | - |
| 1777673450 | 17.22° C | 64% | 1014.9 hPa | 0 mm | - | 168 W/m² | - |
| 1777673147 | 17.22° C | 63% | 1014.9 hPa | 0 mm | - | 176 W/m² | - |
| 1777672844 | 17.22° C | 63% | 1015 hPa | 0 mm | - | 180 W/m² | - |
| 1777672540 | 17.78° C | 63% | 1014.8 hPa | 0 mm | - | 189 W/m² | - |
| 1777672235 | 17.78° C | 63% | 1015.1 hPa | 0 mm | - | 204 W/m² | - |
| 1777671931 | 17.22° C | 63% | 1015.1 hPa | 0 mm | - | 224 W/m² | - |
| 1777671627 | 17.22° C | 63% | 1015.1 hPa | 0 mm | - | 216 W/m² | - |
| 1777671324 | 17.22° C | 63% | 1015.1 hPa | 0 mm | - | 203 W/m² | - |
| 1777671020 | 17.22° C | 64% | 1015.1 hPa | 0 mm | - | 203 W/m² | - |
| 1777670716 | 17.22° C | 63% | 1014.9 hPa | 0 mm | - | 209 W/m² | - |
| 1777670414 | 17.22° C | 64% | 1015.2 hPa | 0 mm | - | 200 W/m² | - |
| 1777670110 | 17.22° C | 63% | 1015 hPa | 0 mm | - | 193 W/m² | - |
| 1777669809 | 17.22° C | 64% | 1015.2 hPa | 0 mm | - | 196 W/m² | - |
* Rain latest hour (hover to see other rain measurements)
** Current wind speed in m/s (hover to see current wind gust speed)